Seattle, WA
on Sunday, January 27, 2013

Sunday
Previous Day Next Day
Daily Summary
 ActualAverageRecord
Temperature
Mean Temperature °F 43°F  
Max Temperature 42°F 48°F 58°F (1952)
Min Temperature 39°F 37°F 11°F (1957)
Degree Days
Heating Degree Days 24 22  
Month to date heating degree days 741 622  
Since 1 July heating degree days 2492 2560  
Cooling Degree Days 0 0  
Month to date cooling degree days 0 0  
Year to date cooling degree days 0 0  
Moisture
Dew Point 37°F   
Average Humidity 87    
Maximum Humidity 92    
Minimum Humidity 82    
Precipitation
Precipitation 0.07 in 0.16 in 1.61 in (1967)
Month to date precipitation 3.42 4.94  
Year to date precipitation 3.42 4.94  
Snow
Snow 0.00 in in 14.90 in (1969)
Month to date snowfall T  
Since 1 July snowfall 0.6  
Snow Depth 0.00 in   
Wind
Wind Speed 10 mph   
Max Wind Speed 18 mph   
Max Gust Speed 23 mph   
Visibility 9 miles   
Events Rain   

Key: T is trace of precipitation, MM is missing value
Source: NWS Daily Summary
Time(PST)TemperatureDew PointHumidity Pressure Visibility Wind DirectionWind SpeedGust SpeedPrecipitationEvents Conditions
12:53 AM 41.0°F 37.0°F 86% 30.06 in 10.0 miles SSW 8.1 mph - N/A   Overcast
1:53 AM 41.0°F 37.9°F 89% 30.06 in 10.0 miles SSW 9.2 mph - N/A   Overcast
2:20 AM 41.0°F 37.4°F 87% 30.03 in 7.0 miles South 8.1 mph - 0.00 in Rain Light Rain
2:53 AM 41.0°F 37.9°F 89% 30.06 in 10.0 miles South 6.9 mph - 0.00 in   Overcast
3:41 AM 41.0°F 37.4°F 87% 30.03 in 10.0 miles SW 8.1 mph - 0.01 in   Overcast
3:53 AM 39.9°F 37.9°F 93% 30.06 in 5.0 miles WSW 6.9 mph - 0.01 in Rain Light Rain
4:32 AM 39.2°F 39.2°F 100% 30.03 in 5.0 miles SSW 5.8 mph - 0.01 in Rain Light Rain
4:53 AM 39.9°F 39.0°F 97% 30.06 in 5.0 miles SSW 4.6 mph - 0.01 in   Overcast
5:34 AM 39.2°F 37.4°F 93% 30.03 in 10.0 miles WSW 4.6 mph - N/A   Overcast
5:53 AM 39.9°F 37.9°F 93% 30.06 in 10.0 miles Calm Calm - N/A   Overcast
6:53 AM 39.9°F 37.0°F 89% 30.06 in 10.0 miles SW 6.9 mph - N/A   Overcast
7:53 AM 39.9°F 36.0°F 86% 30.06 in 10.0 miles SSW 8.1 mph - N/A   Overcast
8:12 AM 39.2°F 37.4°F 93% 30.04 in 10.0 miles South 9.2 mph - N/A   Overcast
8:53 AM 41.0°F 37.0°F 86% 30.08 in 10.0 miles SSW 11.5 mph - N/A   Overcast
9:16 AM 41.0°F 37.4°F 87% 30.05 in 10.0 miles SSW 11.5 mph - N/A   Overcast
9:53 AM 41.0°F 37.0°F 86% 30.08 in 10.0 miles SSW 13.8 mph - N/A   Overcast
10:35 AM 41.0°F 37.4°F 87% 30.06 in 10.0 miles South 12.7 mph - 0.00 in Rain Light Rain
10:53 AM 41.0°F 37.9°F 89% 30.09 in 10.0 miles South 11.5 mph - 0.01 in Rain Light Rain
11:07 AM 41.0°F 37.4°F 87% 30.06 in 10.0 miles SSW 10.4 mph - 0.00 in Rain Light Rain
11:53 AM 41.0°F 37.0°F 86% 30.07 in 10.0 miles South 16.1 mph - 0.00 in   Overcast
12:53 PM 39.9°F 37.0°F 89% 30.05 in 10.0 miles SSW 13.8 mph 21.9 mph 0.00 in Rain Light Rain
1:53 PM 41.0°F 37.0°F 86% 30.03 in 10.0 miles SSW 16.1 mph 23.0 mph 0.00 in   Overcast
2:53 PM 41.0°F 37.0°F 86% 30.03 in 10.0 miles South 13.8 mph - 0.01 in Rain Light Rain
3:08 PM 39.2°F 37.4°F 93% 30.00 in 10.0 miles South 13.8 mph - 0.00 in Rain Light Rain
3:53 PM 39.9°F 37.0°F 89% 30.02 in 10.0 miles South 12.7 mph - 0.00 in Rain Light Rain
4:48 PM 39.2°F 37.4°F 93% 29.99 in 10.0 miles South 10.4 mph - 0.01 in   Overcast
4:53 PM 39.9°F 37.0°F 89% 30.02 in 10.0 miles South 9.2 mph - 0.01 in   Overcast
5:18 PM 39.2°F 37.4°F 93% 29.99 in 10.0 miles SSW 10.4 mph - N/A   Overcast
5:53 PM 39.9°F 36.0°F 86% 30.02 in 10.0 miles SSW 12.7 mph - N/A   Overcast
6:53 PM 39.9°F 36.0°F 86% 30.02 in 10.0 miles SSW 10.4 mph - N/A   Overcast
7:53 PM 39.9°F 36.0°F 86% 30.04 in 10.0 miles SSW 10.4 mph - 0.00 in   Overcast
8:53 PM 39.0°F 36.0°F 89% 30.03 in 10.0 miles South 9.2 mph - 0.00 in   Overcast
9:46 PM 39.2°F 35.6°F 87% 30.00 in 10.0 miles South 10.4 mph - 0.01 in   Overcast
9:53 PM 39.0°F 36.0°F 89% 30.03 in 10.0 miles South 10.4 mph - 0.01 in   Overcast
10:53 PM 39.0°F 37.0°F 93% 30.02 in 6.0 miles South 9.2 mph - 0.01 in   Overcast
11:53 PM 39.0°F 37.0°F 93% 30.03 in 4.0 miles South 9.2 mph - N/A   Overcast
Moon Phase
Jan. 27 Feb. 03 Feb. 10 Feb. 17 Feb. 25
Sunrise:07:40 AM (PST) Moon Rise:06:11 PM (PST)1/27
Sunset:05:03 PM (PST) Moon Set:07:30 AM (PST)1/27

Copyright © 2014 The Weather Underground, Inc.